Location: Ciechanow
(52.8812°N, 20.6195°E)
Time: 06:04:13
(UTC+02:00)

ISS - Pass Details

Date: 28 January 2019
Orbit: 411 x 421 km, 51.6° (Epoch: 24 October)

Event Time Altitude Azimuth Distance (km) Brightness Sun altitude
Rises 19:11:42 0° 269° (W) 2,421 1.4 -26.6°
Reaches altitude 10° 19:13:50 10° 267° (W) 1,554 0.1 -26.9°
Enters shadow 19:15:31 26° 263° (W) 898 -1.5 -27.1°
